Location: Piolenc
(44.1794°N, 4.7641°E)
Time: 01:03:21
(UTC+00:00)

ERBS - Pass Details

Date: 27 January 2021
Orbit: 404 x 419 km, 57.0° (Epoch: 27 February)

Event Time Altitude Azimuth Distance (km) Brightness Sun altitude
Exits shadow 05:17:51 12° 194° (SSW) 1,332 4.7 -19.0°
Maximum altitude 05:20:28 33° 131° (SE) 699 3.9 -18.6°
Drops below altitude 10° 05:23:28 10° 64° (ENE) 1,466 5.8 -18.0°
Sets 05:25:39 0° 55° (NE) 2,329 6.8 -17.6°
